AUA179 EKCH-EDDB

Flight info

Callsign AUA179
Flight time N/A
Altitude 23000
Route NEXEN T503 MICOS Z990 RAMAR/N0455F350 Z990 IRKIS L619 VIBIS T209 OGBER
Aircraft A320/M-SDE3FGHIRWY/LB1

Departure

Time 2026-04-23 09:20
Airport Copenhagen Kastrup Airport (EKCH)

Arrival

Time N/A
Airport Berlin Brandenburg Airport (EDDB)
Time Latitude Longitude Altitude Speed Heading
2026-04-23 08:40 55.62503 12.65467 18 ft 0 kts 24°
2026-04-23 09:09 55.62500 12.65464 18 ft 1 kts 24°
2026-04-23 09:10 55.62482 12.65453 18 ft 4 kts 19°
2026-04-23 09:10 55.62447 12.65460 18 ft 2 kts 311°
2026-04-23 09:10 55.62443 12.65483 18 ft 0 kts 270°
2026-04-23 09:12 55.62443 12.65472 18 ft 7 kts 270°
2026-04-23 09:12 55.62442 12.65367 18 ft 8 kts 266°
2026-04-23 09:13 55.62440 12.65306 18 ft 3 kts 266°
2026-04-23 09:13 55.62438 12.65258 18 ft 6 kts 253°
2026-04-23 09:13 55.62379 12.65196 19 ft 11 kts 183°
2026-04-23 09:13 55.62303 12.65198 19 ft 11 kts 178°
2026-04-23 09:14 55.62232 12.65195 19 ft 10 kts 194°
2026-04-23 09:14 55.62173 12.65145 19 ft 9 kts 213°
2026-04-23 09:14 55.62132 12.65096 19 ft 5 kts 215°
2026-04-23 09:14 55.62078 12.65030 19 ft 21 kts 213°
2026-04-23 09:15 55.61920 12.64849 20 ft 30 kts 213°
2026-04-23 09:15 55.61750 12.64654 21 ft 29 kts 213°
2026-04-23 09:15 55.61590 12.64467 22 ft 27 kts 213°
2026-04-23 09:15 55.61399 12.64251 22 ft 37 kts 210°
2026-04-23 09:16 55.61190 12.64017 23 ft 35 kts 213°
2026-04-23 09:16 55.60991 12.63789 23 ft 33 kts 212°
2026-04-23 09:16 55.60802 12.63571 22 ft 32 kts 214°
2026-04-23 09:16 55.60647 12.63384 22 ft 22 kts 219°
2026-04-23 09:17 55.60531 12.63209 21 ft 22 kts 221°
2026-04-23 09:17 55.60456 12.63119 21 ft 12 kts 188°
2026-04-23 09:17 55.60393 12.63167 21 ft 0 kts 133°
2026-04-23 09:17 55.60393 12.63166 21 ft 0 kts 133°
2026-04-23 09:19 55.60378 12.63195 21 ft 5 kts 129°
2026-04-23 09:19 55.60356 12.63247 21 ft 6 kts 123°
2026-04-23 09:19 55.60345 12.63335 21 ft 9 kts 68°
2026-04-23 09:20 55.60386 12.63419 21 ft 12 kts 42°
2026-04-23 09:20 55.60692 12.63892 23 ft 107 kts 40°
2026-04-23 09:20 55.61465 12.65057 216 ft 174 kts 39°
2026-04-23 09:20 55.62451 12.66566 1093 ft 199 kts 40°
2026-04-23 09:21 55.63531 12.68272 1883 ft 211 kts 42°
2026-04-23 09:21 55.64581 12.70164 2452 ft 227 kts 43°
2026-04-23 09:21 55.65834 12.72067 3184 ft 250 kts 39°
2026-04-23 09:21 55.67254 12.74084 3967 ft 276 kts 38°
2026-04-23 09:22 55.68780 12.76240 4732 ft 285 kts 38°
2026-04-23 09:22 55.70331 12.78432 5484 ft 289 kts 38°
2026-04-23 09:22 55.71850 12.80767 6225 ft 293 kts 49°
2026-04-23 09:22 55.72803 12.83972 6984 ft 298 kts 74°
2026-04-23 09:23 55.72896 12.87621 7732 ft 305 kts 98°
2026-04-23 09:23 55.72102 12.91113 8484 ft 313 kts 122°
2026-04-23 09:23 55.70539 12.93796 9235 ft 321 kts 146°
2026-04-23 09:23 55.68451 12.95195 9986 ft 328 kts 169°
2026-04-23 09:24 55.66163 12.95303 10746 ft 334 kts 181°
2026-04-23 09:24 55.63864 12.94711 11495 ft 338 kts 192°
2026-04-23 09:24 55.61700 12.93066 12245 ft 343 kts 213°
2026-04-23 09:24 55.59785 12.90539 13002 ft 347 kts 220°
2026-04-23 09:25 55.57979 12.87720 13754 ft 351 kts 222°
2026-04-23 09:25 55.56176 12.84820 14505 ft 354 kts 223°
2026-04-23 09:25 55.54371 12.81840 15257 ft 358 kts 223°
2026-04-23 09:25 55.52563 12.78825 16006 ft 362 kts 223°
2026-04-23 09:26 55.50841 12.75591 16755 ft 366 kts 229°
2026-04-23 09:26 55.49182 12.72139 17513 ft 370 kts 230°
2026-04-23 09:26 55.47508 12.68608 18273 ft 385 kts 230°
2026-04-23 09:26 55.45789 12.64975 19028 ft 391 kts 230°
2026-04-23 09:27 55.44048 12.61297 19779 ft 396 kts 230°
2026-04-23 09:27 55.42285 12.57575 20531 ft 400 kts 230°
2026-04-23 09:27 55.40505 12.53819 21281 ft 404 kts 230°
2026-04-23 09:27 55.38705 12.50027 22031 ft 409 kts 230°
2026-04-23 09:28 55.36871 12.46165 22786 ft 414 kts 230°
2026-04-23 09:28 55.35024 12.42280 23539 ft 418 kts 230°
2026-04-23 09:28 55.33162 12.38373 24288 ft 423 kts 231°
2026-04-23 09:28 55.31254 12.34450 25039 ft 427 kts 231°
2026-04-23 09:29 55.29300 12.30539 25790 ft 430 kts 230°
2026-04-23 09:29 55.27320 12.26651 26538 ft 434 kts 230°
2026-04-23 09:29 55.25302 12.22713 27291 ft 439 kts 230°
2026-04-23 09:29 55.23247 12.18707 28047 ft 443 kts 230°
2026-04-23 09:30 55.22775 12.17787 28220 ft 443 kts 230°
2026-04-23 09:30 55.18913 12.11103 29535 ft 447 kts 220°
2026-04-23 09:30 55.16426 12.07847 30102 ft 452 kts 218°
2026-04-23 09:30 55.13883 12.04657 30603 ft 456 kts 217°
2026-04-23 09:31 55.11300 12.01451 31103 ft 460 kts 217°
2026-04-23 09:31 55.08690 11.98218 31506 ft 466 kts 217°
2026-04-23 09:31 55.06028 11.94924 31887 ft 472 kts 217°
2026-04-23 09:31 55.03354 11.91616 32265 ft 477 kts 217°
2026-04-23 09:32 55.00657 11.88283 32641 ft 481 kts 217°
2026-04-23 09:32 54.97937 11.84922 33016 ft 483 kts 217°
2026-04-23 09:32 54.95199 11.81543 33421 ft 485 kts 217°
2026-04-23 09:32 54.92476 11.78186 33892 ft 485 kts 217°
2026-04-23 09:33 54.89697 11.74940 34284 ft 486 kts 211°
2026-04-23 09:33 54.87402 11.73016 34559 ft 476 kts 202°